Location: Briis
(48.6240°N, 2.1211°E)
Time: 11:08:31
(UTC+00:00)

SL-16 R/B - Pass Details

Date: 25 September 2020
Orbit: 985 x 1007 km, 99.5° (Epoch: 25 October)

Event Time Altitude Azimuth Distance (km) Brightness Sun altitude
Exits shadow 01:35:43 31° 340° (NNW) 1,666 3.9 -36.6°
Drops below altitude 10° 01:38:43 10° 343° (NNW) 2,755 5.2 -36.3°
Sets 01:41:11 0° 344° (NNW) 3,707 6.0 -36.0°
